Other Surface Observations
Issued by NWS Charleston, SC

Home | Current Version | Previous Version | Text Only | Print | Product List | Glossary On
Versions: 1 2 3 4 5 6 7 8 9 10 11 12 13 14 15 16 17 18 19 20 21 22 23 24 25 26 27 28 29 30 31 32 33 34 35 36 37 38 39 40 41 42 43 44 45 46 47 48 49 50
000
SXUS52 KCHS 240325
OSOCHS

MARINE OBSERVATIONS
NATIONAL WEATHER SERVICE CHARLESTON SC
1000 PM EST SUN NOV 23 2014

...DOWNTOWN CHARLESTON AND HARBOR...

CITY           SKY/WX    TMP DP  RH WIND       PRES   REMARKS
WATERFRONT PRK   N/A     70 N/A N/A SW17G23     N/A
FORT JOHNSON   NOT AVBL

...LAKE MOULTRIE...

CITY           SKY/WX    TMP DP  RH WIND       PRES   REMARKS
PINOPOLIS      NOT AVBL

...LAKE AND SUPPLEMENTAL COASTAL OBSERVATIONS...

STATION/POSITION TIME  TEMP    WIND        PRES    WAVE   SWELL
                       AIR SEA DIR/SP/G            HT/PER HT/PER/DIR
                 (UTC) (F)     (DEG/KT/KT) (MB)    (FT/S) (FT/S/D)
FORT PULASKI     0300   64      70/  7/  9 1010.2F
SAPELO ISLAND    NOT AVBL
UPR LAKE MARION  NOT AVBL
WINYAH BAY       0300   65     210/  6     1011.0S
LAKE MURRAY      0300   63     190/  5/  6 1008.1S
ACE BASIN NERRS  0300   69     230/  5     1012.0S


...C-MAN AND BUOY OBSERVATIONS...

STATION/POSITION TIME  TEMP    WIND        PRES    WAVE   SWELL
                       AIR SEA DIR/SP/G            HT/PER HT/PER/DIR
                 (UTC) (F)     (DEG/KT/KT) (MB)    (FT/S) (FT/S/D)
BUOY 41004       0300   77 75  210/ 16/ 19 1010.5F  12/ 9  10/ 9
BUOY 41008       0200   68 64  190/ 14/ 17 1012.3R   6/ 9   3/ 90/ 9
FOLLY BEACH CMAN 0300   63     220/ 10/ 11 1011.8S
CAPERS NS BUOY   0200   65     200/ 14/ 17   N/A
FRIPP NS BUOY    NOT AVBL
5E ST. MARYS GA  0300      60                N/A     6/10   2/110/11


STATION/POSITION TIME  TEMP    WIND        PRES    WAVE   SWELL
                       AIR SEA DIR/SP/G            HT/PER HT/PER/DIR
                 (UTC) (F)     (DEG/KT/KT) (MB)    (FT/S) (FT/S/D)
FRYING PAN BUOY  0300   70 67  140/ 27/ 35 1012.1F  15/ 9
BUOY 41025       0300   72     140/ 27/ 31 1014.2F   8/ 6   2/260/11
CAPE LOOKOUT NC  0300   67     150/ 29/ 33 1013.7F
BUOY 41002       NOT AVBL
BUOY 41010       0300   78 78  170/ 19/ 23 1015.3R   9/10   8/120/10
ST AUGUSTINE FL  0300   68     180/  9/ 11 1013.8R


$$



USA.gov is the U.S. government's official web portal to all federal, state and local government web resources and services.